Theta_e
313 313 313 311 309 309 310 310 312 313 313 313 313 311 313 314 314 313 315 317 313 312 315 316 317 317 315 312 308 306 308 311 314 315 315 312 313 314 315 315 314 314 316 325 347
313 313 312 308 307 309 309 310 311 312 312 310 311 313 314 316 316 316 313 313 311 311 313 315 316 316 310 309 307 306 306 308 309 312 312 311 312 311 314 314 314 314 316 351 354
313 312 308 305 308 309 309 310 312 312 309 308 312 315 316 316 314 316 313 312 312 312 314 315 316 315 313 309 308 306 307 307 309 309 309 310 310 311 313 312 312 314 316 346 344
307 309 308 307 308 309 309 310 312 314 310 309 308 314 317 315 312 313 313 313 313 313 314 313 310 311 312 313 311 312 309 309 309 311 309 310 310 310 310 311 312 312 315 336 343
306 307 308 309 309 310 310 311 312 314 311 311 312 314 316 311 313 313 313 313 313 314 313 311 310 310 311 311 312 311 311 311 311 309 309 308 308 309 309 309 309 311 314 325 334
307 306 308 309 310 310 311 312 313 314 314 312 316 317 316 313 314 314 313 313 313 313 313 310 310 309 310 312 313 312 312 311 310 310 308 309 309 310 310 310 311 312 315 326 328
309 306 308 309 310 310 310 311 313 314 315 311 312 316 316 314 314 314 313 313 313 313 312 313 311 311 311 312 311 311 312 309 310 313 313 311 312 309 311 312 311 310 312 318 322
309 308 307 309 309 309 309 310 312 316 315 314 312 316 316 318 317 317 315 314 314 313 312 313 311 310 311 310 309 310 309 311 310 313 314 313 312 312 312 313 314 312 311 313 317
310 309 306 309 309 309 310 312 315 316 315 316 314 315 315 317 317 316 316 314 314 314 313 312 311 309 309 310 310 308 312 312 313 313 314 315 312 313 312 314 314 312 311 310 315
311 309 307 309 309 311 315 314 314 316 316 316 316 312 313 316 316 316 316 315 313 312 312 311 308 310 308 310 315 314 313 312 313 311 312 311 312 312 312 313 312 312 311 309 310
312 309 308 309 311 315 315 314 309 309 317 314 314 317 316 317 317 315 316 314 313 312 313 311 312 312 313 310 312 312 313 314 313 312 313 313 312 312 312 311 311 311 311 309 308
313 309 308 310 313 314 314 313 313 313 313 313 314 315 316 316 317 315 315 314 314 316 313 312 313 314 311 311 312 313 313 314 312 312 312 313 313 312 312 310 311 311 311 311 308
314 310 309 311 314 313 314 314 315 315 313 314 315 316 316 316 316 315 314 314 315 315 314 314 316 315 314 314 316 316 315 314 315 314 312 311 313 311 310 310 310 311 311 311 309
315 312 311 313 313 313 312 314 315 316 309 312 312 316 312 311 313 314 315 316 315 315 315 314 313 315 317 317 317 319 316 315 315 315 314 311 315 311 309 309 310 309 310 310 309
315 314 312 312 313 312 314 314 314 314 313 312 313 313 312 312 312 312 316 315 315 314 316 317 317 317 317 317 317 318 314 314 316 315 311 313 313 312 308 310 308 308 308 309 308
314 315 316 315 312 313 314 315 316 313 314 313 312 313 313 313 312 311 313 312 314 317 316 316 315 315 315 316 317 317 318 315 307 308 314 311 311 312 308 309 314 313 311 309 308
312 316 317 317 313 316 315 314 317 312 313 314 314 313 313 313 312 313 312 312 317 318 317 316 316 314 316 316 314 314 315 319 316 310 316 309 312 310 311 314 317 317 316 314 308
311 316 315 314 313 315 313 310 314 315 315 313 313 314 314 313 312 314 312 312 315 317 316 319 318 316 315 316 316 316 316 321 321 315 313 313 315 312 311 315 316 317 315 313 312
310 314 315 313 314 315 309 311 313 314 316 318 316 315 315 313 312 312 312 312 317 315 319 319 320 316 316 316 315 316 316 314 317 317 320 316 313 312 312 317 318 318 316 313 312
313 312 314 313 315 312 309 313 314 314 316 317 316 314 315 314 313 313 312 313 318 316 316 318 322 317 317 315 314 315 315 317 315 320 317 315 316 315 317 317 318 317 315 313 312
312 309 314 313 313 308 312 313 314 315 316 316 316 314 314 313 314 313 314 312 314 317 315 317 321 319 316 316 315 316 317 316 313 313 316 317 315 314 316 317 317 316 313 312 310
307 309 314 314 311 306 311 312 314 316 314 313 312 312 312 313 313 315 315 314 312 316 318 316 320 323 319 316 314 314 317 316 319 317 314 316 316 313 313 315 317 314 313 312 312
306 306 314 313 312 310 310 313 314 316 314 313 312 312 311 312 310 313 314 312 311 316 317 316 321 322 320 313 316 318 317 317 316 317 319 318 316 315 313 314 316 314 314 314 314
306 311 308 305 306 311 311 312 314 314 314 311 311 311 310 310 309 311 311 312 312 315 317 317 320 323 324 321 320 321 320 319 315 320 320 318 317 315 315 315 315 314 314 314 315
305 309 308 309 310 310 310 311 314 315 313 311 311 312 312 310 310 310 312 311 311 311 317 318 322 321 320 319 319 319 319 319 320 320 321 317 317 316 315 315 314 314 315 315 316
308 308 307 307 308 311 310 311 314 314 313 314 311 314 312 310 310 311 309 311 309 313 320 319 321 320 320 318 318 319 317 317 318 320 321 320 319 316 316 317 318 317 316 316 315
307 309 309 307 307 310 309 311 313 312 312 312 313 313 311 311 309 309 310 309 309 311 315 319 319 319 316 315 314 309 318 318 320 319 319 321 319 316 317 317 315 316 316 317 317
Wind_Speed
20 19 17 14 12 12 13 15 14 14 14 14 13 12 14 13 6 4 2 4 5 11 12 9 8 11 4 3 2 3 4 2 3 4 4 5 6 2 3 6 4 5 7 12 37
22 19 17 14 10 11 13 15 15 14 15 14 13 14 12 8 4 4 9 5 6 10 12 14 7 8 3 3 3 4 3 6 5 3 6 4 4 13 4 6 6 12 8 12 10
23 20 16 12 10 11 13 13 14 14 14 14 15 16 10 6 2 4 8 8 7 9 9 6 4 3 4 3 3 2 4 4 4 5 5 4 5 4 3 6 10 8 9 3 5
25 20 15 11 11 12 12 12 12 13 13 13 13 16 9 4 4 4 4 5 7 8 9 6 5 5 4 4 4 2 5 2 5 4 6 4 4 6 7 9 11 11 9 5 6
27 21 14 12 12 12 11 11 11 11 12 12 13 13 4 4 1 4 6 6 7 7 6 3 4 2 2 2 5 4 2 5 7 9 7 7 8 8 6 10 11 10 10 9 7
29 20 13 10 10 11 11 10 10 10 9 9 12 11 3 4 3 4 7 9 6 7 3 1 1 3 1 2 2 3 5 7 7 7 5 5 7 2 3 7 8 7 8 7 7
32 23 12 8 8 9 10 9 9 8 6 6 9 9 2 4 4 7 9 10 10 9 3 3 2 2 1 5 2 4 5 7 4 3 4 6 12 5 3 5 6 9 9 9 10
35 24 13 7 8 9 12 12 9 5 3 5 6 5 4 3 9 10 10 10 8 7 10 9 2 2 2 3 6 4 3 4 5 5 4 3 14 2 7 7 6 9 9 9 12
40 25 13 5 7 10 14 13 6 2 1 3 3 4 6 6 5 5 8 7 4 4 4 4 2 2 4 3 5 5 4 3 6 2 3 1 18 4 13 3 6 6 9 12 10
43 25 12 5 7 9 12 7 7 4 3 3 2 2 4 3 3 4 8 11 3 3 5 5 5 2 3 4 4 7 8 5 6 6 3 7 22 10 6 8 8 7 9 10 12
45 24 11 7 7 9 10 2 5 3 1 3 2 3 6 8 11 6 5 1 1 4 2 3 3 6 12 8 8 5 6 11 10 12 3 12 21 19 14 7 6 7 9 10 12
46 20 11 7 6 6 7 3 1 2 5 3 4 5 12 6 4 5 4 3 2 5 1 4 6 12 7 8 7 7 9 9 8 10 4 9 17 22 15 9 6 8 9 10 9
49 18 12 8 4 6 5 5 7 4 1 5 4 4 7 5 3 6 6 2 4 3 6 4 13 11 5 6 10 8 10 7 11 5 6 7 16 15 8 9 8 7 12 9 11
51 16 12 7 2 7 2 8 8 1 4 5 5 3 6 4 6 7 4 2 3 6 4 5 5 4 9 10 10 13 9 13 13 4 5 3 10 11 7 11 7 8 9 13 10
51 20 8 6 4 2 5 17 2 2 4 6 4 3 6 4 4 4 6 2 6 8 2 7 6 14 12 6 1 9 7 7 10 6 1 3 2 9 8 17 10 12 8 12 12
49 18 8 7 6 2 12 4 3 5 2 5 3 6 4 3 5 4 4 6 1 3 2 7 7 3 5 6 6 8 5 6 2 3 6 6 7 16 3 0 7 8 10 13 10
48 16 10 12 8 15 11 3 5 5 4 6 7 5 3 4 5 2 4 6 1 5 5 8 6 3 3 5 4 5 4 3 3 1 8 1 2 10 11 2 3 7 10 12 10
45 13 19 19 16 11 3 5 5 2 4 5 6 6 3 3 5 3 6 4 3 2 3 4 8 3 1 3 6 5 6 3 4 3 4 3 6 6 7 6 3 6 10 8 8
42 17 15 28 9 2 6 5 4 1 4 6 8 2 3 2 3 4 4 3 4 8 2 5 5 10 12 7 5 1 3 2 2 2 3 5 5 8 6 3 3 6 9 8 8
29 12 13 26 6 4 5 2 2 3 5 3 3 2 4 8 3 5 3 4 4 9 3 4 11 4 5 4 7 11 6 1 1 3 5 6 5 7 3 4 6 6 9 9 7
10 4 18 23 5 6 4 4 4 6 3 3 4 5 5 5 3 3 5 7 3 1 5 1 5 10 7 4 4 2 2 1 2 4 4 4 5 6 6 6 6 7 8 9 8
7 3 20 21 4 2 2 5 6 4 4 5 2 2 2 4 4 4 6 6 5 4 4 6 4 6 13 18 10 9 2 4 3 3 4 2 7 7 7 5 5 7 7 11 11
4 3 11 9 3 3 5 4 4 4 5 4 5 2 3 2 5 4 6 5 5 3 4 4 3 7 7 4 2 2 4 5 3 3 7 4 7 2 7 7 6 6 6 11 14
3 4 4 5 2 4 5 4 4 5 5 6 6 3 6 5 4 8 13 8 3 5 16 5 4 9 11 12 12 12 12 14 7 4 2 9 18 16 18 14 12 13 7 9 14
3 2 1 4 2 3 2 3 4 5 4 5 4 2 9 5 11 6 3 10 7 11 2 4 6 10 12 18 19 20 21 18 15 11 8 13 13 18 18 19 19 18 10 11 15
2 3 3 4 4 2 2 3 3 2 2 6 4 16 13 8 12 20 11 6 8 2 5 3 6 4 11 17 16 16 14 14 14 11 9 12 21 15 6 9 11 12 9 13 14
5 4 1 4 4 3 4 4 4 9 9 10 11 13 14 16 10 15 19 20 14 8 3 3 2 2 8 6 13 4 3 3 1 2 7 11 6 12 13 13 13 14 15 19 19
Wind_Direction
359 358 354 349 344 344 347 348 346 345 344 343 344 350 346 360 54 48 343 349 353 357 13 22 22 27 91 75 68 122 62 200 238 169 248 293 321 215 271 268 300 268 299 301 307
360 360 358 356 355 356 360 2 354 348 350 5 6 4 1 1 18 2 9 5 0 4 14 20 2 5 43 43 27 88 112 220 214 229 246 280 288 297 263 270 274 288 290 10 52
360 359 1 9 9 3 6 6 3 2 5 10 4 3 360 357 42 340 24 36 27 11 7 15 357 39 56 14 30 115 189 222 260 266 280 264 287 247 246 279 242 254 291 317 48
5 1 5 15 13 6 5 5 3 5 8 8 3 2 358 35 64 316 359 7 4 358 14 15 20 32 47 9 329 2 259 270 289 296 312 280 256 283 208 239 247 266 262 267 213
10 3 6 15 15 11 7 6 3 358 3 10 5 1 26 29 188 347 316 328 338 341 352 32 58 91 23 301 328 175 260 296 269 280 262 270 246 256 249 268 273 268 277 235 215
11 3 360 11 14 10 7 3 359 352 356 3 3 9 43 59 324 337 305 305 320 330 318 256 339 235 220 254 153 270 261 275 276 279 262 283 263 211 297 324 313 298 272 260 229
11 3 356 355 5 0 351 351 349 341 341 346 357 12 42 219 300 302 297 290 304 306 291 255 184 69 197 311 237 275 316 322 294 312 277 299 292 187 92 41 360 317 293 274 256
10 1 351 347 345 345 336 338 333 321 317 343 353 8 253 269 304 295 288 288 286 270 256 296 263 147 151 303 353 352 64 15 293 328 299 40 275 241 23 27 341 304 301 280 270
8 4 355 352 339 341 329 337 352 330 162 355 25 35 281 295 288 305 265 259 298 296 300 305 96 62 27 57 355 360 286 296 307 241 265 266 290 162 315 285 272 274 291 288 275
9 7 6 4 349 347 337 22 42 80 87 45 21 21 288 307 282 265 266 246 286 340 357 44 40 15 25 77 261 282 295 256 264 287 264 286 282 282 255 251 234 240 273 280 279
9 12 18 14 1 1 351 30 14 0 48 218 259 275 301 310 302 242 238 148 14 54 275 355 16 256 270 216 242 248 252 262 275 277 268 276 284 294 290 267 246 229 261 268 267
7 15 19 10 5 8 20 49 99 263 319 262 260 277 272 258 299 303 192 153 146 256 319 355 252 267 255 275 243 245 266 270 281 269 187 271 276 287 290 278 240 213 247 253 268
6 13 15 5 33 16 22 19 327 351 88 301 209 239 287 151 254 286 155 162 228 261 263 210 261 304 292 294 300 269 259 262 260 287 273 277 281 287 287 275 283 254 232 241 238
3 6 15 12 47 356 41 0 335 25 59 301 345 315 354 344 353 323 230 235 311 259 273 226 277 259 309 296 283 279 231 250 260 272 254 166 290 280 268 280 283 270 238 243 224
1 353 4 11 325 340 316 330 238 93 23 308 301 288 351 92 274 317 339 343 253 282 130 258 282 307 306 248 113 247 239 249 270 250 247 217 266 262 4 297 308 317 270 256 254
358 348 349 355 327 344 337 359 120 46 323 322 312 324 15 312 318 310 328 32 357 324 247 252 271 224 217 284 253 259 315 285 45 175 249 192 185 289 212 241 333 322 324 294 263
355 356 352 351 322 326 339 79 32 94 347 314 309 310 337 272 317 284 311 338 357 356 311 327 283 284 212 323 349 64 41 310 313 318 247 164 184 249 269 126 225 314 313 313 309
351 15 24 358 327 322 47 52 60 212 269 295 288 298 259 327 265 289 301 315 225 168 303 317 327 5 191 189 263 271 177 218 264 237 275 320 239 243 199 160 193 249 268 286 315
347 347 7 355 1 13 70 56 212 244 291 297 311 303 295 310 266 3 262 233 237 181 248 315 268 289 285 272 187 228 194 209 224 238 262 229 284 302 185 191 245 273 285 311 320
343 335 2 358 13 46 72 233 239 231 318 311 297 256 283 307 299 357 279 224 241 198 155 290 293 277 302 297 234 200 151 137 23 250 255 274 263 230 326 318 292 295 293 310 288
354 17 359 358 16 46 103 252 290 299 341 290 266 270 284 298 294 276 261 290 217 35 153 276 230 294 325 229 220 183 194 253 238 189 209 286 252 218 216 204 260 285 292 291 297
358 356 358 360 49 46 41 314 294 293 350 288 310 320 274 298 281 261 244 212 353 161 203 217 262 276 282 285 267 236 224 215 236 222 248 242 272 245 247 233 224 292 298 304 313
351 275 359 19 78 348 310 287 271 321 320 327 302 36 312 300 345 252 280 273 302 180 271 189 245 303 300 1 7 99 207 221 270 251 203 225 260 257 275 282 254 280 305 303 307
5 344 336 33 57 92 337 288 303 331 290 2 283 15 359 309 245 274 284 291 17 228 280 205 234 239 266 280 298 287 271 263 219 237 219 231 271 280 297 301 314 303 288 290 295
32 308 205 313 327 330 203 267 295 336 349 325 308 52 332 287 300 244 244 304 289 281 301 184 256 260 269 271 270 271 282 283 274 239 236 271 280 294 290 295 295 294 273 297 293
35 18 355 285 291 282 252 242 236 241 254 279 231 305 309 259 243 284 286 265 245 287 163 204 280 279 291 278 268 276 279 278 270 284 279 292 280 287 292 299 315 317 270 276 284
357 319 262 267 289 293 244 236 269 335 282 229 321 301 299 283 262 270 273 267 243 256 223 223 261 287 289 316 308 316 219 236 270 244 294 298 297 314 308 310 306 308 302 293 288